Weather History for Beatrice, NE

Change the Weather History Date:

Wednesday, October 30, 2013

  Actual Average Record
Temperature  
Mean Temperature 49 °F -  
Max Temperature 53 °F 61 °F 83 °F (1968)
Min Temperature 45 °F 41 °F 26 °F (1952)
Degree Days  
Heating Degree Days 16    
Moisture  
Dew Point 48 °F    
Average Humidity 97    
Maximum Humidity 100    
Minimum Humidity 90    
Precipitation  
Precipitation 0.45 in - - ()
Sea Level Pressure  
Sea Level Pressure 29.86 in    
Wind  
Wind Speed 7 mph (NNW)    
Max Wind Speed 14 mph    
Max Gust Speed 21 mph    
Visibility 6 miles    
Events Fog , Rain , Thunderstorm    
Averages and records for this station are not official NWS values.
T = Trace of Precipitation, MM = Missing Value Source: NWS Daily Summary

Daily Weather History Graph

Daily Weather History Graph

Search for Another Location

Airport:

Trip Planner

Search our weather history database for the weather conditions in past years. The results will help you decide how hot, cold, wet, or windy it might be!

Date:

Astronomy

Oct. 30, 2013 Rise Set
Actual Time 7:54 AM CDT 6:26 PM CDT
Civil Twilight 7:26 AM CDT 6:54 PM CDT
Nautical Twilight 6:54 AM CDT 7:26 PM CDT
Astronomical Twilight 6:22 AM CDT 7:57 PM CDT
Moon 3:44 AM CDT (10/30) 4:12 PM CDT (10/30)
Length of Visible Light 11h 27m
Length of Day
10h 31m
Waning Crescent, 17% of the Moon is Illuminated
Oct 30
Waning Crescent
Nov 3
New
Nov 9
First Quarter
Nov 17
Full
Nov 25
Last Quarter

Hourly Weather History & Observations

Time (CDT) Temp. Windchill Dew Point Humidity Pressure Visibility Wind Dir Wind Speed Gust Speed Precip Events Conditions
12:15 AM 51.4 °F - 51.4 °F 100% 29.96 in 0.5 mi NW 8.1 mph - N/A Fog Fog
12:35 AM 51.1 °F - 51.1 °F 100% 29.96 in 0.5 mi NW 9.2 mph - N/A Fog Fog
12:55 AM 50.9 °F - 50.9 °F 100% 29.96 in 0.5 mi NW 11.5 mph - N/A Fog Fog
1:15 AM 50.2 °F - 50.2 °F 100% 29.96 in 0.5 mi NW 10.4 mph - N/A Fog Fog
1:35 AM 49.5 °F - 49.5 °F 100% 29.95 in 0.8 mi NW 8.1 mph - N/A   Overcast
1:55 AM 48.7 °F - 48.7 °F 100% 29.96 in 1.0 mi NW 8.1 mph - N/A   Overcast
2:15 AM 48.6 °F - 48.6 °F 100% 29.95 in 1.0 mi NW 6.9 mph - N/A   Overcast
2:35 AM 48.2 °F - 48.2 °F 100% 29.96 in 1.5 mi NW 8.1 mph - N/A   Overcast
2:55 AM 48.2 °F - 48.2 °F 100% 29.95 in 1.2 mi NW 6.9 mph - N/A   Overcast
3:15 AM 47.7 °F - 47.7 °F 100% 29.95 in 1.2 mi NW 5.8 mph - N/A   Overcast
3:35 AM 47.8 °F - 47.8 °F 100% 29.93 in 1.5 mi NNW 6.9 mph - N/A   Overcast
3:55 AM 47.7 °F - 47.7 °F 100% 29.94 in 2.0 mi NNW 4.6 mph - N/A   Overcast
4:15 AM 47.7 °F - 47.7 °F 100% 29.93 in 1.8 mi NNW 5.8 mph - N/A   Overcast
4:35 AM 47.5 °F - 47.5 °F 100% 29.94 in 1.8 mi NW 3.5 mph - N/A   Overcast
4:55 AM 47.5 °F - 47.5 °F 100% 29.94 in 1.8 mi Calm Calm - N/A   Overcast
5:15 AM 47.3 °F - 47.3 °F 100% 29.92 in 1.5 mi North 3.5 mph - N/A Thunderstorm Overcast
5:35 AM 47.3 °F - 47.3 °F 100% 29.93 in 1.5 mi Calm Calm - N/A   Overcast
5:55 AM 47.3 °F - 47.3 °F 100% 29.91 in 1.2 mi North 4.6 mph - N/A   Overcast
6:15 AM 47.3 °F - 47.3 °F 100% 29.90 in 1.5 mi ENE 3.5 mph - N/A   Overcast
6:35 AM 47.3 °F - 47.3 °F 100% 29.90 in 1.0 mi Calm Calm - N/A   Overcast
6:55 AM 47.5 °F - 47.5 °F 100% 29.90 in 1.5 mi Calm Calm - N/A Thunderstorm Overcast
7:15 AM 47.1 °F - 47.1 °F 100% 29.90 in 1.2 mi WSW 3.5 mph - N/A   Overcast
7:35 AM 46.8 °F - 46.8 °F 100% 29.89 in 1.0 mi WNW 3.5 mph - N/A   Overcast
7:55 AM 46.8 °F - 46.8 °F 100% 29.86 in 0.8 mi NNW 3.5 mph - N/A Thunderstorm Overcast
8:15 AM 46.4 °F 40.4 °F 46.4 °F 100% 29.88 in 1.0 mi NW 13.8 mph - N/A Thunderstorm Overcast
8:35 AM 46.0 °F 41.0 °F 46.0 °F 100% 29.86 in 1.5 mi North 10.4 mph 20.7 mph N/A Thunderstorm Unknown
8:55 AM 45.7 °F 41.0 °F 45.7 °F 100% 29.95 in 0.8 mi West 9.2 mph - 0.42 in Thunderstorm Unknown
9:15 AM 45.7 °F 41.0 °F 45.7 °F 100% 29.88 in 4.0 mi North 9.2 mph - 0.03 in Rain , Thunderstorm Light Thunderstorms and Rain
9:35 AM 46.4 °F 44.3 °F 46.0 °F 99% 29.89 in 10.0 mi NNW 4.6 mph - 0.03 in   Overcast
9:55 AM 46.8 °F - 45.7 °F 96% 29.89 in 10.0 mi North 4.6 mph - 0.03 in   Overcast
10:15 AM 47.3 °F - 46.4 °F 97% 29.89 in 10.0 mi North 6.9 mph - N/A   Overcast
10:35 AM 47.5 °F - 46.6 °F 97% 29.88 in 10.0 mi North 6.9 mph - N/A   Overcast
10:55 AM 47.3 °F - 46.4 °F 97% 29.89 in 7.0 mi North 10.4 mph - N/A   Overcast
11:15 AM 47.1 °F - 46.6 °F 98% 29.88 in 4.0 mi North 6.9 mph - N/A   Light Drizzle
11:35 AM 47.1 °F - 46.4 °F 97% 29.88 in 4.0 mi North 5.8 mph - N/A   Overcast
11:55 AM 47.8 °F - 47.1 °F 97% 29.87 in 5.0 mi North 5.8 mph - N/A   Overcast
12:15 PM 48.4 °F - 47.7 °F 97% 29.86 in 7.0 mi NNE 3.5 mph - N/A   Overcast
12:35 PM 49.3 °F - 48.2 °F 96% 29.86 in 10.0 mi Calm Calm - N/A   Overcast
12:55 PM 50.5 °F - 49.1 °F 95% 29.85 in 10.0 mi NW 6.9 mph - N/A   Overcast
1:15 PM 50.5 °F - 49.3 °F 95% 29.84 in 7.0 mi NNW 4.6 mph - N/A   Overcast
1:35 PM 50.9 °F - 49.3 °F 94% 29.83 in 10.0 mi Calm Calm - N/A   Overcast
1:55 PM 52.3 °F - 50.7 °F 94% 29.81 in 7.0 mi NW 8.1 mph - N/A   Overcast
2:15 PM 51.1 °F - 49.5 °F 94% 29.82 in 7.0 mi WNW 8.1 mph - N/A   Overcast
2:35 PM 50.9 °F - 49.6 °F 95% 29.81 in 10.0 mi WNW 6.9 mph - N/A   Overcast
2:55 PM 51.3 °F - 49.6 °F 94% 29.80 in 10.0 mi NW 4.6 mph - N/A   Overcast
3:15 PM 51.4 °F - 49.8 °F 94% 29.79 in 10.0 mi West 5.8 mph - N/A   Overcast
3:35 PM 51.8 °F - 50.0 °F 94% 29.78 in 10.0 mi NW 3.5 mph - N/A   Overcast
3:55 PM 52.3 °F - 50.4 °F 93% 29.78 in 10.0 mi NW 4.6 mph - N/A   Overcast
4:15 PM 52.7 °F - 50.7 °F 93% 29.78 in 10.0 mi NW 4.6 mph - N/A   Overcast
4:35 PM 53.2 °F - 51.3 °F 93% 29.77 in 10.0 mi NW 5.8 mph - N/A   Overcast
4:55 PM 53.8 °F - 51.3 °F 91% 29.77 in 10.0 mi NNW 8.1 mph - N/A   Overcast
5:15 PM 53.8 °F - 51.3 °F 91% 29.77 in 10.0 mi NNW 9.2 mph - N/A   Overcast
5:35 PM 53.6 °F - 50.9 °F 91% 29.77 in 10.0 mi NNW 8.1 mph - N/A   Overcast
5:55 PM 52.7 °F - 50.4 °F 92% 29.77 in 10.0 mi NNW 9.2 mph - N/A   Overcast
6:15 PM 52.2 °F - 50.2 °F 93% 29.77 in 10.0 mi NW 5.8 mph - N/A   Overcast
7:55 PM 48.9 °F - 47.3 °F 94% 29.78 in 10.0 mi NW 9.2 mph - N/A   Overcast
8:15 PM 48.4 °F - 46.9 °F 95% 29.79 in 10.0 mi NW 10.4 mph - N/A   Overcast
8:35 PM 48.2 °F - 46.6 °F 94% 29.79 in 10.0 mi NW 6.9 mph - N/A   Overcast
8:55 PM 47.8 °F - 46.4 °F 95% 29.79 in 10.0 mi NNW 6.9 mph - N/A   Overcast
9:15 PM 47.7 °F - 46.0 °F 94% 29.79 in 10.0 mi NW 6.9 mph - N/A   Overcast
9:35 PM 47.1 °F - 45.5 °F 94% 29.78 in 10.0 mi NNW 9.2 mph - N/A   Overcast
9:55 PM 47.3 °F - 45.5 °F 93% 29.78 in 10.0 mi NNW 9.2 mph - N/A   Overcast
10:15 PM 47.3 °F - 45.7 °F 94% 29.79 in 10.0 mi NNW 10.4 mph - N/A   Overcast
10:35 PM 47.3 °F - 45.7 °F 94% 29.79 in 10.0 mi NNW 9.2 mph - N/A   Overcast
10:55 PM 46.9 °F - 44.6 °F 92% 29.80 in 10.0 mi NNW 11.5 mph - N/A   Overcast
11:15 PM 46.8 °F - 44.1 °F 90% 29.79 in 10.0 mi North 9.2 mph - N/A   Overcast
11:35 PM 46.8 °F - 43.9 °F 90% 29.78 in 10.0 mi NNW 8.1 mph - N/A   Overcast
11:55 PM 45.0 °F 41.2 °F 42.4 °F 91% 29.77 in 10.0 mi NNW 6.9 mph - N/A   Scattered Clouds